BIMS4 Weather Reports


time (UTC)temp
F
wind
direction
speed
knots
gust
knots
rain 1hr
in
rain 24hr
in
rain mn
in
humidity
%
barometer
mb
20260503021048 55 49 0.0 0.0 0.00 0.31 0.29 96 1012.2
20260503020841 55 49 0.0 0.0 0.00 0.31 0.29 96 1012.3
20260503020043 55 49 0.0 0.0 0.00 0.31 0.29 95 1012.3
20260503015541 55 49 0.0 0.0 0.00 0.31 0.29 95 1012.3
20260503015038 55 49 0.0 0.0 0.00 0.31 0.29 95 1012.4
20260503014841 55 49 0.0 0.0 0.00 0.31 0.29 95 1012.3
20260503014037 55 49 0.0 0.9 0.00 0.31 0.29 95 1012.3
20260503013535 55 49 0.0 0.9 0.00 0.31 0.29 95 1012.2
20260503013031 55 49 0.0 0.9 0.00 0.31 0.29 95 1012.2
20260503012531 55 71 0.0 0.9 0.00 0.31 0.29 95 1012.2
20260503012030 55 65 0.0 0.9 0.00 0.31 0.29 95 1012.3
20260503011525 55 65 0.0 0.9 0.00 0.31 0.29 95 1012.2
20260503011019 55 64 0.0 0.9 0.00 0.31 0.29 95 1012.5
20260503010517 55 33 0.0 0.9 0.00 0.31 0.29 95 1012.6
20260503010022 55 122 0.0 0.9 0.00 0.31 0.29 95 1012.6
20260503005520 55 87 0.0 1.7 0.00 0.31 0.29 95 1012.6
20260503005020 55 110 0.0 1.7 0.00 0.31 0.29 95 1012.7
20260503004518 55 88 0.0 0.0 0.00 0.31 0.29 95 1012.7
20260503004322 55 73 0.0 0.9 0.00 0.31 0.29 95 1012.8
20260503003520 55 73 0.0 0.9 0.01 0.31 0.29 95 1012.8
20260503003019 55 73 0.0 0.0 0.01 0.31 0.29 95 1013.0
20260503002520 55 73 0.0 0.9 0.01 0.31 0.29 95 1013.1
20260503002305 55 73 0.0 0.9 0.02 0.31 0.29 95 1013.0
20260503001824 55 73 0.0 0.9 0.03 0.31 0.29 95 1013.0
20260503001119 55 73 0.0 0.0 0.05 0.31 0.29 95 1013.2
20260503001059 55 73 0.0 0.0 0.03 0.31 0.29 95 1013.0
20260503000018 55 73 0.0 0.0 0.07 0.31 0.29 94 1013.2
20260502235519 56 73 0.0 0.9 0.09 0.31 0.29 94 1013.2
20260502235017 56 73 0.0 1.7 0.10 0.31 0.29 94 1012.9
20260502234516 56 73 0.0 1.7 0.12 0.31 0.29 94 1012.9
20260502234255 56 57 0.0 1.7 0.20 0.30 0.28 94 1013.7
20260502234251 56 5 0.0 1.7 0.18 0.30 0.28 94 1013.2
20260502234211 56 87 0.0 1.7 0.15 0.31 0.29 94 1013.1
20260502233057 56 61 0.0 1.7 0.19 0.30 0.28 94 1013.5
20260502232013 56 57 0.0 1.7 0.24 0.29 0.27 94 1013.7
20260502231515 56 57 0.0 0.9 0.26 0.28 0.26 94 1014.1
20260502231012 56 57 0.0 0.9 0.26 0.28 0.25 94 1014.6
20260502230517 56 57 0.0 0.0 0.24 0.26 0.24 93 1014.9
20260502230010 56 57 0.0 0.9 0.22 0.24 0.22 93 1015.0
20260502225510 56 57 0.0 0.9 0.20 0.22 0.20 93 1015.0
20260502225008 56 57 0.0 0.0 0.19 0.21 0.18 92 1015.1
20260502224514 56 57 0.0 0.0 0.18 0.19 0.16 92 1015.3
20260502224007 57 58 0.0 0.9 0.16 0.16 0.14 92 1015.3
20260502223758 57 58 0.0 0.9 0.12 0.12 0.10 92 1015.5
20260502223004 57 345 0.0 0.9 0.11 0.11 0.09 92 1015.8
20260502222502 57 91 0.0 1.7 0.10 0.10 0.07 92 1016.0
20260502222004 57 324 0.0 1.7 0.04 0.04 0.02 91 1015.9
20260502221502 57 95 0.0 0.0 0.02 0.02 0.00 91 1015.8
20260502221004 58 316 0.0 0.0 0.02 0.02 0.00 90 1014.9
20260502220502 58 316 0.0 0.0 0.02 0.02 0.00 90 1014.8
20260502220051 58 316 0.0 0.0 0.02 0.02 0.00 89 1014.8
20260502215506 58 316 0.0 0.0 0.02 0.02 0.02 88 1014.8
20260502215006 58 316 0.0 0.0 0.02 0.02 0.02 87 1014.8
20260502214503 59 316 0.0 0.0 0.01 0.01 0.01 85 1014.8
20260502214004 59 356 0.0 0.0 0.00 0.00 0.00 83 1014.8
20260502213502 59 135 0.0 0.0 0.00 0.00 0.00 83 1014.9
20260502213004 59 98 0.0 0.0 0.00 0.00 0.00 84 1014.7
20260502212506 59 82 0.0 0.0 0.00 0.00 0.00 85 1014.4
20260502212309 59 29 0.0 0.0 0.00 0.00 0.00 86 1014.3
20260502211505 59 25 0.0 0.0 0.00 0.00 0.00 86 1014.3
20260502211004 59 25 0.0 0.0 0.00 0.00 0.00 86 1014.2
20260502210503 59 16 0.0 0.0 0.00 0.00 0.00 86 1014.3
20260502210006 59 342 0.0 0.0 0.00 0.00 0.00 86 1014.5
20260502205502 59 22 0.0 0.0 0.00 0.00 0.00 86 1014.6
20260502205241 59 51 0.0 0.0 0.00 0.00 0.00 86 1014.6
20260502204459 59 51 0.0 0.0 0.00 0.00 0.00 86 1014.7
20260502203954 59 305 0.0 0.0 0.00 0.00 0.00 86 1014.7
20260502203450 59 305 0.0 0.0 0.00 0.00 0.00 86 1014.8
20260502202944 59 305 0.0 0.0 0.00 0.00 0.00 85 1015.0
20260502202444 59 305 0.0 0.0 0.00 0.00 0.00 85 1014.9
20260502201943 59 305 0.0 0.0 0.00 0.00 0.00 85 1015.0
20260502201440 60 307 0.0 0.0 0.00 0.00 0.00 84 1015.0
20260502201230 60 2 0.0 0.0 0.00 0.00 0.00 83 1015.2
20260502200439 60 27 0.0 1.7 0.00 0.00 0.00 83 1015.4
20260502195938 60 24 0.0 1.7 0.00 0.00 0.00 82 1015.3
20260502195722 60 72 0.0 1.7 0.00 0.00 0.00 80 1015.4
20260502194938 60 292 0.0 0.9 0.00 0.00 0.00 78 1015.4
20260502194729 60 292 0.0 1.7 0.00 0.00 0.00 76 1015.4
20260502193939 60 292 0.0 1.7 0.00 0.00 0.00 73 1015.4
20260502193438 60 292 0.0 0.0 0.00 0.00 0.00 71 1015.4
20260502192940 61 292 0.0 0.0 0.00 0.00 0.00 70 1015.4
20260502192432 61 292 0.0 0.0 0.00 0.00 0.00 69 1015.3
20260502191933 62 292 0.0 0.0 0.00 0.00 0.00 69 1015.5
20260502191432 62 292 0.0 0.0 0.00 0.00 0.00 68 1015.5
20260502190934 62 292 0.0 0.0 0.00 0.00 0.00 65 1015.5
20260502190716 63 292 0.0 0.0 0.00 0.00 0.00 64 1015.4
20260502185934 63 292 0.0 0.9 0.00 0.00 0.00 63 1015.4
20260502185825 63 292 0.0 0.9 0.00 0.00 0.00 62 1015.3
20260502185522 63 292 0.0 0.9 0.00 0.00 0.00 62 1015.3
20260502184432 63 292 0.0 0.9 0.00 0.00 0.00 63 1015.4
20260502183934 63 292 0.0 1.7 0.00 0.00 0.00 63 1015.3
20260502183434 64 292 0.0 1.7 0.00 0.00 0.00 62 1015.2
20260502182930 64 313 0.0 0.0 0.00 0.00 0.00 62 1015.3
20260502182431 64 313 0.0 0.9 0.00 0.00 0.00 62 1015.2
20260502181930 64 313 0.0 0.9 0.00 0.00 0.00 63 1015.2
20260502181721 64 313 0.0 2.6 0.00 0.00 0.00 63 1015.2
20260502180932 64 313 0.0 2.6 0.00 0.00 0.00 62 1015.2
20260502180432 64 310 0.0 1.7 0.00 0.00 0.00 63 1015.3
20260502170415 69 296 0.9 3.5 0.00 0.00 0.00 58 1015.9
20260502164157 72 294 0.0 2.6 0.00 0.00 0.00 56 1016.1
20260502163412 72 308 0.0 2.6 0.00 0.00 0.00 57 1016.3
20260502162909 72 297 0.0 2.6 0.00 0.00 0.00 58 1016.2
20260502162408 72 292 0.0 2.6 0.00 0.00 0.00 57 1016.3
20260502161908 72 335 0.0 2.6 0.00 0.00 0.00 57 1016.3
20260502161405 72 290 0.9 2.6 0.00 0.00 0.00 57 1016.3
20260502161024 73 310 0.9 3.5 0.00 0.00 0.00 58 1016.3
20260502161005 72 300 0.9 3.5 0.00 0.00 0.00 57 1016.3
20260502160146 73 311 0.9 2.6 0.00 0.00 0.00 60 1016.3
20260502152146 73 326 0.9 6.1 0.00 0.00 0.00 61 1016.4
20260502151402 73 314 0.9 6.1 0.00 0.00 0.00 60 1016.6
20260502150903 73 330 0.9 4.3 0.00 0.00 0.00 60 1016.6
20260502150407 73 267 0.9 4.3 0.00 0.00 0.00 62 1016.7
20260502130341 72 331 0.9 4.3 0.00 0.00 0.00 67 1017.7
20260502130255 73 75 0.9 2.6 0.00 0.00 0.00 66 1017.8
20260502130249 73 70 0.9 4.3 0.00 0.00 0.00 67 1017.7
20260502123341 71 65 0.9 4.3 0.00 0.00 0.00 70 1017.8
20260502123109 70 307 0.0 4.3 0.00 0.00 0.00 70 1017.8
20260502122341 70 73 0.9 3.5 0.00 0.00 0.00 72 1017.9
20260502121843 70 299 0.9 9.6 0.00 0.00 0.00 72 1018.0
20260502121403 70 50 0.9 9.6 0.00 0.00 0.00 70 1018.0
20260502120842 70 284 0.9 3.5 0.00 0.00 0.00 70 1018.1
20260502120346 70 108 0.9 3.5 0.00 0.00 0.00 69 1018.1
20260502120135 71 357 0.9 3.5 0.00 0.00 0.00 69 1018.0
20260502115339 71 347 0.9 3.5 0.00 0.00 0.00 67 1018.0
20260502114840 72 303 0.9 3.5 0.00 0.00 0.00 68 1018.1
20260502114339 71 108 0.9 4.3 0.00 0.00 0.00 68 1018.0
20260502114129 71 121 0.9 4.3 0.00 0.00 0.00 68 1018.1
20260502113339 71 3 0.9 4.3 0.00 0.00 0.00 70 1018.2
20260502112839 71 93 0.9 4.3 0.00 0.00 0.00 69 1018.3
20260502112341 70 314 0.9 4.3 0.00 0.00 0.00 70 1018.3
20260502111839 70 76 0.0 2.6 0.00 0.00 0.00 70 1018.4
20260502111447 70 49 0.9 5.2 0.00 0.00 0.00 69 1018.6
20260502111430 70 10 0.9 5.2 0.00 0.00 0.00 70 1018.6
20260502110354 70 93 0.9 6.1 0.00 0.00 0.00 69 1018.6
20260502105840 70 290 0.9 6.1 0.00 0.00 0.00 69 1018.6
20260502105338 70 142 0.9 4.3 0.00 0.00 0.00 69 1018.7
20260502104837 70 311 0.9 3.5 0.00 0.00 0.00 69 1018.7
20260502104334 69 339 0.9 3.5 0.00 0.00 0.00 70 1018.8
20260502103836 69 50 0.9 3.5 0.00 0.00 0.00 71 1018.7
20260502103334 69 343 0.9 3.5 0.00 0.00 0.00 70 1018.8
20260502103137 69 291 0.9 3.5 0.00 0.00 0.00 70 1018.8
20260502102331 69 312 0.9 5.2 0.00 0.00 0.00 71 1018.7
20260502101826 69 103 0.9 6.1 0.00 0.00 0.00 70 1018.7
20260502101323 68 131 0.9 6.1 0.00 0.00 0.00 72 1018.8
20260502100824 68 97 0.9 3.5 0.00 0.00 0.00 72 1018.8
20260502100332 68 356 0.9 2.6 0.00 0.00 0.00 72 1018.8
20260502100125 67 80 0.9 3.5 0.00 0.00 0.00 72 1018.8
20260502090815 63 349 0.0 0.0 0.00 0.00 0.00 75 1018.9
20260502090315 62 349 0.0 0.0 0.00 0.00 0.00 75 1018.9
20260502080106 59 56 0.0 0.9 0.00 0.00 0.00 74 1019.1
20260502071258 57 324 0.0 0.0 0.00 0.00 0.00 73 1018.9
20260502071100 57 324 0.0 0.0 0.00 0.00 0.00 72 1019.0
20260502070258 56 323 0.0 0.0 0.00 0.00 0.00 72 1019.1
20260502065758 56 324 0.0 1.7 0.00 0.00 0.00 71 1019.2
20260502065257 56 324 0.0 1.7 0.00 0.00 0.00 70 1019.1
20260502064801 56 324 0.0 0.0 0.00 0.00 0.00 72 1019.2
20260502064256 56 324 0.0 0.0 0.00 0.00 0.00 72 1019.1
20260502063755 56 324 0.0 0.0 0.00 0.00 0.00 71 1019.1
20260502063528 55 323 0.0 0.9 0.00 0.00 0.00 71 1019.1
20260502062750 55 324 0.0 0.9 0.00 0.00 0.00 72 1019.2
20260502062248 55 325 0.0 0.0 0.00 0.00 0.00 71 1019.1
20260502061746 55 325 0.0 0.9 0.00 0.00 0.00 72 1019.1
20260502061246 55 325 0.0 2.6 0.00 0.00 0.00 73 1019.1
20260502060744 54 315 0.0 2.6 0.00 0.00 0.00 74 1019.1
20260502060244 54 87 0.0 0.0 0.00 0.00 0.00 74 1019.1
20260502055749 53 87 0.0 0.0 0.00 0.00 0.00 76 1019.0
20260502055244 53 87 0.0 0.0 0.00 0.00 0.00 76 1019.0
20260502055046 53 87 0.0 0.0 0.00 0.00 0.00 76 1018.7
20260502054236 53 87 0.0 0.0 0.00 0.00 0.00 76 1018.7
20260502053736 52 87 0.0 0.0 0.00 0.00 0.00 75 1018.7
20260502053236 52 87 0.0 0.0 0.00 0.00 0.00 75 1018.8
20260502052735 52 87 0.0 0.0 0.00 0.00 0.00 76 1018.7
20260502052233 51 87 0.0 0.0 0.00 0.00 0.00 76 1018.9
20260502051732 51 87 0.0 0.0 0.00 0.00 0.00 77 1018.9
20260502051306 51 87 0.0 0.9 0.00 0.00 0.00 77 1018.9
20260502050738 51 87 0.0 1.7 0.00 0.00 0.00 76 1018.8
20260502050527 50 87 0.0 1.7 0.00 0.00 0.00 77 1018.9
20260502045730 50 87 0.0 0.9 0.00 0.00 0.00 77 1018.8
20260502045230 50 87 0.0 0.0 0.00 0.00 0.00 78 1019.0
20260502044732 49 87 0.0 0.0 0.00 0.00 0.00 78 1018.9
20260502044229 49 87 0.0 0.0 0.00 0.00 0.00 79 1018.9
20260502044022 49 87 0.0 0.0 0.00 0.00 0.00 79 1018.9
20260502043226 49 87 0.0 0.0 0.00 0.00 0.00 79 1018.7
20260502043017 49 87 0.0 0.0 0.00 0.00 0.00 78 1018.8
20260502042228 49 87 0.0 0.0 0.00 0.00 0.00 78 1018.7
20260502041726 49 87 0.0 0.0 0.00 0.00 0.00 78 1018.7
20260502041226 49 87 0.0 0.0 0.00 0.00 0.00 78 1018.7
20260502040727 49 87 0.0 0.0 0.00 0.00 0.00 77 1018.8
20260502040226 50 87 0.0 0.0 0.00 0.00 0.00 77 1018.8
20260502035726 50 87 0.0 0.0 0.00 0.00 0.00 77 1018.8
20260502035225 50 87 0.0 0.0 0.00 0.00 0.00 77 1019.0
20260502034726 50 87 0.0 0.0 0.00 0.00 0.00 77 1019.0
20260502034226 50 87 0.0 0.0 0.00 0.00 0.00 76 1019.0
20260502033726 50 87 0.0 0.0 0.00 0.00 0.00 76 1019.0
20260502033226 50 87 0.0 0.0 0.00 0.00 0.00 76 1019.0
20260502033111 50 87 0.0 0.0 0.00 0.00 0.00 75 1019.1
20260502032224 50 87 0.0 0.0 0.00 0.00 0.00 75 1019.1
20260502031722 50 87 0.0 0.0 0.00 0.00 0.00 75 1019.2
20260502031457 50 87 0.0 0.0 0.00 0.00 0.00 75 1019.2
20260502030719 51 87 0.0 0.0 0.00 0.00 0.00 75 1019.3
20260502030218 51 87 0.0 0.0 0.00 0.00 0.00 74 1019.3
20260502025718 51 87 0.0 0.0 0.00 0.00 0.00 74 1019.4
20260502025337 51 87 0.0 0.0 0.00 0.00 0.00 74 1019.4
20260502025312 51 87 0.0 0.0 0.00 0.00 0.00 73 1019.4
20260502024210 51 87 0.0 0.0 0.00 0.00 0.00 73 1019.4
20260502023708 51 87 0.0 0.0 0.00 0.00 0.00 72 1019.3
20260502023207 51 87 0.0 0.0 0.00 0.00 0.00 72 1019.4
20260502023002 51 87 0.0 0.0 0.00 0.00 0.00 72 1019.4
20260502022208 51 87 0.0 0.0 0.00 0.00 0.00 72 1019.5
20260502021708 52 87 0.0 0.0 0.00 0.00 0.00 71 1019.6